Deer Park, WA

2:41 AM PDT on March 26, 2017 (GMT -0700)
Deer Park

Weather History for KDEW - May, 2013

Change the Weather History Date:

Friday, May 24, 2013

  Actual Average Record
Temperature  
Mean Temperature 43 °F 54 °F  
Max Temperature 54 °F 68 °F 90 °F (2003)
Min Temperature 31 °F 41 °F 31 °F (2013)
Degree Days  
Heating Degree Days 22 11  
Month to date heating degree days 252 333  
Since 1 July heating degree days 6728 7144  
Cooling Degree Days 0 0  
Month to date cooling degree days 3 0  
Year to date cooling degree days 3 0  
Moisture  
Dew Point 37 °F    
Average Humidity 73    
Maximum Humidity 92    
Minimum Humidity 54    
Precipitation  
Precipitation 0.00 in 0.07 in 0.26 in (2003)
Month to date precipitation 0.92 1.36  
Year to date precipitation 6.16 9.26  
Sea Level Pressure  
Sea Level Pressure 29.99 in    
Wind  
Wind Speed 7 mph (SSW)    
Max Wind Speed 22 mph    
Max Gust Speed 23 mph    
Visibility 10 miles    
Events      
T = Trace of Precipitation, MM = Missing Value Source: NWS Daily Summary

Daily Weather History Graph

Daily Weather History Graph

Search for Another Location

Airport or City:

Trip Planner

Search our weather history database for the weather conditions in past years. The results will help you decide how hot, cold, wet, or windy it might be!

Date:

Astronomy

May. 24, 2013 Rise Set
Actual Time 5:00 AM PDT 8:33 PM PDT
Civil Twilight 4:22 AM PDT 9:11 PM PDT
Nautical Twilight 3:30 AM PDT 10:03 PM PDT
Astronomical Twilight 2:21 AM PDT 11:14 PM PDT
Moon 8:18 PM PDT (5/24) 4:40 AM PDT (5/24)
Length of Visible Light 16h 49m
Length of Day
15h 32m
Full, 100% of the Moon is Illuminated
May 24
Full
May 24
Full
May 31
Last Quarter
Jun 8
New
Jun 16
First Quarter

Hourly Weather History & Observations

Time (PDT) Temp. Windchill Dew Point Humidity Pressure Visibility Wind Dir Wind Speed Gust Speed Precip Events Conditions
12:53 AM 36.0 °F - 34.0 °F 93% 29.97 in 10.0 mi Calm Calm - N/A   Clear
1:53 AM 35.1 °F 32.2 °F 32.0 °F 89% 29.97 in 10.0 mi NNE 3.5 mph - N/A   Clear
2:53 AM 37.9 °F - 34.0 °F 86% 29.96 in 10.0 mi North - - N/A   Clear
3:53 AM 35.1 °F - 33.1 °F 92% 29.96 in 10.0 mi Calm Calm - N/A   Clear
4:53 AM 35.1 °F 32.2 °F 32.0 °F 89% 29.96 in 10.0 mi NW 3.5 mph - N/A   Clear
5:53 AM 35.1 °F - 33.1 °F 92% 29.96 in 10.0 mi North - - N/A   Clear
6:53 AM 44.1 °F 41.5 °F 37.0 °F 76% 29.96 in 10.0 mi NE 4.6 mph - N/A   Clear
7:53 AM 45.0 °F 43.5 °F 37.9 °F 76% 29.98 in 10.0 mi ESE 3.5 mph - N/A   Clear
8:53 AM 46.9 °F - 37.9 °F 71% 29.99 in 10.0 mi Variable 3.5 mph - N/A   Clear
9:53 AM 50.0 °F - 39.0 °F 66% 29.99 in 10.0 mi South 8.1 mph - N/A   Partly Cloudy
10:09 AM 51.8 °F - 39.2 °F 62% 29.96 in 10.0 mi South 9.2 mph - N/A   Mostly Cloudy
10:53 AM 51.1 °F - 41.0 °F 68% 30.00 in 10.0 mi SSW 13.8 mph - N/A   Mostly Cloudy
11:53 AM 48.9 °F - 41.0 °F 74% 30.00 in 10.0 mi South 13.8 mph - N/A   Overcast
12:53 PM 50.0 °F - 39.0 °F 66% 30.01 in 10.0 mi South 13.8 mph - N/A   Overcast
1:31 PM 51.8 °F - 39.2 °F 62% 29.97 in 10.0 mi South 9.2 mph - N/A   Overcast
1:53 PM 52.0 °F - 39.9 °F 63% 30.00 in 10.0 mi SSW 9.2 mph - N/A   Overcast
2:23 PM 50.0 °F - 37.4 °F 62% 29.97 in 10.0 mi SSW 9.2 mph - N/A   Overcast
2:53 PM 51.1 °F - 39.0 °F 63% 30.01 in 10.0 mi SSW 11.5 mph - N/A   Overcast
3:00 PM 50.0 °F - 37.4 °F 62% 29.98 in 10.0 mi SW 11.5 mph - N/A   Overcast
3:15 PM 51.8 °F - 39.2 °F 62% 29.98 in 10.0 mi SSW 10.4 mph - N/A   Overcast
3:44 PM 50.0 °F - 37.4 °F 62% 29.98 in 10.0 mi South 11.5 mph - N/A   Overcast
3:53 PM 51.1 °F - 37.9 °F 61% 30.01 in 10.0 mi South 11.5 mph - N/A   Overcast
4:03 PM 51.8 °F - 37.4 °F 58% 29.98 in 10.0 mi SSW 12.7 mph - N/A   Overcast
4:53 PM 54.0 °F - 37.0 °F 53% 30.01 in 10.0 mi SSW 11.5 mph 16.1 mph N/A   Scattered Clouds
5:53 PM 52.0 °F - 37.9 °F 59% 30.01 in 10.0 mi SW 6.9 mph - N/A   Clear
6:53 PM 53.1 °F - 39.0 °F 59% 30.00 in 10.0 mi SW 8.1 mph - N/A   Clear
7:53 PM 48.9 °F - 39.0 °F 69% 30.01 in 10.0 mi South 9.2 mph - N/A   Partly Cloudy
8:53 PM 45.0 °F 42.6 °F 37.9 °F 76% 30.02 in 10.0 mi SSW 4.6 mph - N/A   Clear
9:53 PM 39.0 °F - 37.0 °F 93% 30.04 in 10.0 mi Calm Calm - N/A   Partly Cloudy
10:53 PM 37.0 °F - 35.1 °F 93% 30.03 in 10.0 mi Calm Calm - N/A   Partly Cloudy
11:53 PM 37.0 °F - 35.1 °F 93% 30.03 in 10.0 mi Calm Calm - N/A   Partly Cloudy